Year,Month,Day,Hour,Minute,Value (Times are PST for temperature in C)
2021,12,21,00,00,28.40
2021,12,21,00,01,28.40
2021,12,21,00,02,28.40
2021,12,21,00,03,28.40
2021,12,21,00,04,28.40
2021,12,21,00,05,28.40
2021,12,21,00,06,28.40
2021,12,21,00,07,28.40
2021,12,21,00,08,28.40
2021,12,21,00,09,28.40
2021,12,21,00,10,28.40
2021,12,21,00,11,28.40
2021,12,21,00,12,28.40
2021,12,21,00,13,28.40
2021,12,21,00,14,28.40
2021,12,21,00,15,28.40
2021,12,21,00,16,28.40
2021,12,21,00,17,28.40
2021,12,21,00,18,28.40
2021,12,21,00,19,28.40
2021,12,21,00,20,28.40
2021,12,21,00,21,28.40
2021,12,21,00,22,28.50
2021,12,21,00,23,28.50
2021,12,21,00,24,28.50
2021,12,21,00,25,28.50
2021,12,21,00,26,28.50
2021,12,21,00,27,28.50
2021,12,21,00,28,28.50
2021,12,21,00,29,28.50
2021,12,21,00,30,28.60
2021,12,21,00,31,28.60
2021,12,21,00,32,28.60
2021,12,21,00,33,28.60
2021,12,21,00,34,28.60
2021,12,21,00,35,28.60
2021,12,21,00,36,28.60
2021,12,21,00,37,28.60
2021,12,21,00,38,28.60
2021,12,21,00,39,28.60
2021,12,21,00,40,28.60
2021,12,21,00,41,28.60
2021,12,21,00,42,28.60
2021,12,21,00,43,28.60
2021,12,21,00,44,28.60
2021,12,21,00,45,28.60
2021,12,21,00,46,28.60
2021,12,21,00,47,28.60
2021,12,21,00,48,28.60
2021,12,21,00,49,28.60
2021,12,21,00,50,28.60
2021,12,21,00,51,28.60
2021,12,21,00,52,28.70
2021,12,21,00,53,28.60
2021,12,21,00,54,28.70
2021,12,21,00,55,28.70
2021,12,21,00,56,28.70
2021,12,21,00,57,28.70
2021,12,21,00,58,28.70
2021,12,21,00,59,28.70
2021,12,21,01,00,28.70
2021,12,21,01,01,28.70
2021,12,21,01,02,28.70
2021,12,21,01,03,28.70
2021,12,21,01,04,28.70
2021,12,21,01,05,28.70
2021,12,21,01,06,28.70
2021,12,21,01,07,28.70
2021,12,21,01,08,28.70
2021,12,21,01,09,28.70
2021,12,21,01,10,28.70
2021,12,21,01,11,28.70
2021,12,21,01,12,28.70
2021,12,21,01,13,28.70
2021,12,21,01,14,28.70
2021,12,21,01,15,28.70
2021,12,21,01,16,28.70
2021,12,21,01,17,28.70
2021,12,21,01,18,28.70
2021,12,21,01,19,28.70
2021,12,21,01,20,28.70
2021,12,21,01,21,28.60
2021,12,21,01,22,28.60
2021,12,21,01,23,28.60
2021,12,21,01,24,28.60
2021,12,21,01,25,28.60
2021,12,21,01,26,28.60
2021,12,21,01,27,28.60
2021,12,21,01,28,28.60
2021,12,21,01,29,28.60
2021,12,21,01,30,28.60
2021,12,21,01,31,28.50
2021,12,21,01,32,28.50
2021,12,21,01,33,28.50
2021,12,21,01,34,28.50
2021,12,21,01,35,28.50
2021,12,21,01,36,28.50
2021,12,21,01,37,28.50
2021,12,21,01,38,28.40
2021,12,21,01,39,28.40
2021,12,21,01,40,28.40
2021,12,21,01,41,28.40
2021,12,21,01,42,28.40
2021,12,21,01,43,28.40
2021,12,21,01,44,28.30
2021,12,21,01,45,28.30
2021,12,21,01,46,28.30
2021,12,21,01,47,28.30
2021,12,21,01,48,28.20
2021,12,21,01,49,28.20
2021,12,21,01,50,28.20
2021,12,21,01,51,28.20
2021,12,21,01,52,28.10
2021,12,21,01,53,28.10
2021,12,21,01,54,28.10
2021,12,21,01,55,28.00
2021,12,21,01,56,28.00
2021,12,21,01,57,28.00
2021,12,21,01,58,27.90
2021,12,21,01,59,27.90
2021,12,21,02,00,27.90
2021,12,21,02,01,27.90
2021,12,21,02,02,27.80
2021,12,21,02,03,27.80
2021,12,21,02,04,27.80
2021,12,21,02,05,27.80
2021,12,21,02,06,27.80
2021,12,21,02,07,27.80
2021,12,21,02,08,27.80
2021,12,21,02,09,27.80
2021,12,21,02,10,27.80
2021,12,21,02,11,27.80
2021,12,21,02,12,27.80
2021,12,21,02,13,27.80
2021,12,21,02,14,27.80
2021,12,21,02,15,27.80
2021,12,21,02,16,27.80
2021,12,21,02,17,27.80
2021,12,21,02,18,27.80
2021,12,21,02,19,27.80
2021,12,21,02,20,27.80
2021,12,21,02,21,27.80
2021,12,21,02,22,27.80
2021,12,21,02,23,27.80
2021,12,21,02,24,27.80
2021,12,21,02,25,27.80
2021,12,21,02,26,27.80
2021,12,21,02,27,27.80
2021,12,21,02,28,27.80
2021,12,21,02,29,27.80
2021,12,21,02,30,27.80
2021,12,21,02,31,27.80
2021,12,21,02,32,27.80
2021,12,21,02,33,27.80
2021,12,21,02,34,27.80
2021,12,21,02,35,27.80
2021,12,21,02,36,27.80
2021,12,21,02,37,27.80
2021,12,21,02,38,27.80
2021,12,21,02,39,27.80
2021,12,21,02,40,27.80
2021,12,21,02,41,27.80
2021,12,21,02,42,27.80
2021,12,21,02,43,27.80
2021,12,21,02,44,27.90
2021,12,21,02,45,27.90
2021,12,21,02,46,27.90
2021,12,21,02,47,27.90
2021,12,21,02,48,27.90
2021,12,21,02,49,27.90
2021,12,21,02,50,27.90
2021,12,21,02,51,27.90
2021,12,21,02,52,27.90
2021,12,21,02,53,27.90
2021,12,21,02,54,27.90
2021,12,21,02,55,27.90
2021,12,21,02,56,27.90
2021,12,21,02,57,27.90
2021,12,21,02,58,27.90
2021,12,21,02,59,27.90
2021,12,21,03,00,27.90
2021,12,21,03,01,27.90
2021,12,21,03,02,27.90
2021,12,21,03,03,27.90
2021,12,21,03,04,27.90
2021,12,21,03,05,27.80
2021,12,21,03,06,27.80
2021,12,21,03,07,27.80
2021,12,21,03,08,27.80
2021,12,21,03,09,27.80
2021,12,21,03,10,27.80
2021,12,21,03,11,27.80
2021,12,21,03,12,27.80
2021,12,21,03,13,27.80
2021,12,21,03,14,27.80
2021,12,21,03,15,27.70
2021,12,21,03,16,27.70
2021,12,21,03,17,27.70
2021,12,21,03,18,27.70
2021,12,21,03,19,27.70
2021,12,21,03,20,27.70
2021,12,21,03,21,27.70
2021,12,21,03,22,27.70
2021,12,21,03,23,27.70
2021,12,21,03,24,27.70
2021,12,21,03,25,27.70
2021,12,21,03,26,27.70
2021,12,21,03,27,27.70
2021,12,21,03,28,27.70
2021,12,21,03,29,27.70
2021,12,21,03,30,27.70
2021,12,21,03,31,27.60
2021,12,21,03,32,27.60
2021,12,21,03,33,27.60
2021,12,21,03,34,27.60
2021,12,21,03,35,27.60
2021,12,21,03,36,27.60
2021,12,21,03,37,27.60
2021,12,21,03,38,27.60
2021,12,21,03,39,27.60
2021,12,21,03,40,27.60
2021,12,21,03,41,27.50
2021,12,21,03,42,27.50
2021,12,21,03,43,27.50
2021,12,21,03,44,27.50
2021,12,21,03,45,27.50
2021,12,21,03,46,27.50
2021,12,21,03,47,27.40
2021,12,21,03,48,27.40
2021,12,21,03,49,27.50
2021,12,21,03,50,27.50
2021,12,21,03,51,27.50
2021,12,21,03,52,27.50
2021,12,21,03,53,27.50
2021,12,21,03,54,27.50
2021,12,21,03,55,27.50
2021,12,21,03,56,27.50
2021,12,21,03,57,27.60
2021,12,21,03,58,27.60
2021,12,21,03,59,27.60
2021,12,21,04,00,27.60
2021,12,21,04,01,27.60
2021,12,21,04,02,27.60
2021,12,21,04,03,27.60
2021,12,21,04,04,27.70
2021,12,21,04,05,27.70
2021,12,21,04,06,27.70
2021,12,21,04,07,27.70
2021,12,21,04,08,27.80
2021,12,21,04,09,27.80
2021,12,21,04,10,27.80
2021,12,21,04,11,27.80
2021,12,21,04,12,27.80
2021,12,21,04,13,27.80
2021,12,21,04,14,27.90
2021,12,21,04,15,27.90
2021,12,21,04,16,27.90
2021,12,21,04,17,27.90
2021,12,21,04,18,27.90
2021,12,21,04,19,27.90
2021,12,21,04,20,27.90
2021,12,21,04,21,28.00
2021,12,21,04,22,28.00
2021,12,21,04,23,28.00
2021,12,21,04,24,28.10
2021,12,21,04,25,28.10
2021,12,21,04,26,28.10
2021,12,21,04,27,28.10
2021,12,21,04,28,28.10
2021,12,21,04,29,28.10
2021,12,21,04,30,28.10
2021,12,21,04,31,28.10
2021,12,21,04,32,28.10
2021,12,21,04,33,28.20
2021,12,21,04,34,28.20
2021,12,21,04,35,28.20
2021,12,21,04,36,28.20
2021,12,21,04,37,28.20
2021,12,21,04,38,28.20
2021,12,21,04,39,28.20
2021,12,21,04,40,28.20
2021,12,21,04,41,28.20
2021,12,21,04,42,28.20
2021,12,21,04,43,28.20
2021,12,21,04,44,28.20
2021,12,21,04,45,28.30
2021,12,21,04,46,28.30
2021,12,21,04,47,28.30
2021,12,21,04,48,28.30
2021,12,21,04,49,28.30
2021,12,21,04,50,28.30
2021,12,21,04,51,28.30
2021,12,21,04,52,28.30
2021,12,21,04,53,28.30
2021,12,21,04,54,28.30
2021,12,21,04,55,28.30
2021,12,21,04,56,28.30
2021,12,21,04,57,28.30
2021,12,21,04,58,28.30
2021,12,21,04,59,28.30
2021,12,21,05,00,28.30
2021,12,21,05,01,28.40
2021,12,21,05,02,28.40
2021,12,21,05,03,28.40
2021,12,21,05,04,28.40
2021,12,21,05,05,28.40
2021,12,21,05,06,28.40
2021,12,21,05,07,28.40
2021,12,21,05,08,28.40
2021,12,21,05,09,28.40
2021,12,21,05,10,28.40
2021,12,21,05,11,28.40
2021,12,21,05,12,28.40
2021,12,21,05,13,28.40
2021,12,21,05,14,28.40
2021,12,21,05,15,28.40
2021,12,21,05,16,28.50
2021,12,21,05,17,28.50
2021,12,21,05,18,28.50
2021,12,21,05,19,28.50
2021,12,21,05,20,28.50
2021,12,21,05,21,28.50
2021,12,21,05,22,28.50
2021,12,21,05,23,28.50
2021,12,21,05,24,28.50
2021,12,21,05,25,28.50
2021,12,21,05,26,28.50
2021,12,21,05,27,28.50
2021,12,21,05,28,28.50
2021,12,21,05,29,28.50
2021,12,21,05,30,28.50
2021,12,21,05,31,28.50
2021,12,21,05,32,28.50
2021,12,21,05,33,28.50
2021,12,21,05,34,28.60
2021,12,21,05,35,28.60
2021,12,21,05,36,28.60
2021,12,21,05,37,28.60
2021,12,21,05,38,28.60
2021,12,21,05,39,28.60
2021,12,21,05,40,28.60
2021,12,21,05,41,28.60
2021,12,21,05,42,28.60
2021,12,21,05,43,28.60
2021,12,21,05,44,28.60
2021,12,21,05,45,28.60
2021,12,21,05,46,28.60
2021,12,21,05,47,28.60
2021,12,21,05,48,28.60
2021,12,21,05,49,28.60
2021,12,21,05,50,28.60
2021,12,21,05,51,28.60
2021,12,21,05,52,28.60
2021,12,21,05,53,28.60
2021,12,21,05,54,28.60
2021,12,21,05,55,28.60
2021,12,21,05,56,28.60
2021,12,21,05,57,28.60
2021,12,21,05,58,28.60
2021,12,21,05,59,28.60
2021,12,21,06,00,28.60
2021,12,21,06,01,28.60
2021,12,21,06,02,28.60
2021,12,21,06,03,28.70
2021,12,21,06,04,28.70
2021,12,21,06,05,28.70
2021,12,21,06,06,28.70
2021,12,21,06,07,28.70
2021,12,21,06,08,28.70
2021,12,21,06,09,28.70
2021,12,21,06,10,28.70
2021,12,21,06,11,28.70
2021,12,21,06,12,28.70
2021,12,21,06,13,28.70
2021,12,21,06,14,28.70
2021,12,21,06,15,28.70
2021,12,21,06,16,28.70
2021,12,21,06,17,28.70
2021,12,21,06,18,28.70
2021,12,21,06,19,28.70
2021,12,21,06,20,28.70
2021,12,21,06,21,28.70
2021,12,21,06,22,28.70
2021,12,21,06,23,28.70
2021,12,21,06,24,28.70
2021,12,21,06,25,28.70
2021,12,21,06,26,28.70
2021,12,21,06,27,28.70
2021,12,21,06,28,28.70
2021,12,21,06,29,28.70
2021,12,21,06,30,28.70
2021,12,21,06,31,28.70
2021,12,21,06,32,28.70
2021,12,21,06,33,28.70
2021,12,21,06,34,28.70
2021,12,21,06,35,28.70
2021,12,21,06,36,28.70
2021,12,21,06,37,28.70
2021,12,21,06,38,28.70
2021,12,21,06,39,28.70
2021,12,21,06,40,28.70
2021,12,21,06,41,28.70
2021,12,21,06,42,28.70
2021,12,21,06,43,28.70
2021,12,21,06,44,28.70
2021,12,21,06,45,28.70
2021,12,21,06,46,28.60
2021,12,21,06,47,28.60
2021,12,21,06,48,28.60
2021,12,21,06,49,28.60
2021,12,21,06,50,28.60
2021,12,21,06,51,28.60
2021,12,21,06,52,28.50
2021,12,21,06,53,28.50
2021,12,21,06,54,28.50
2021,12,21,06,55,28.50
2021,12,21,06,56,28.40
2021,12,21,06,57,28.40
2021,12,21,06,58,28.40
2021,12,21,06,59,28.40
2021,12,21,07,00,28.40
2021,12,21,07,01,28.40
2021,12,21,07,02,28.40
2021,12,21,07,03,28.40
2021,12,21,07,04,28.40
2021,12,21,07,05,28.40
2021,12,21,07,06,28.30
2021,12,21,07,07,28.30
2021,12,21,07,08,28.30
2021,12,21,07,09,28.30
2021,12,21,07,10,28.30
2021,12,21,07,11,28.30
2021,12,21,07,12,28.30
2021,12,21,07,13,28.30
2021,12,21,07,14,28.30
2021,12,21,07,15,28.30
2021,12,21,07,16,28.30
2021,12,21,07,17,28.30
2021,12,21,07,18,28.30
2021,12,21,07,19,28.30
2021,12,21,07,20,28.30
2021,12,21,07,21,28.30
2021,12,21,07,22,28.30
2021,12,21,07,23,28.30
2021,12,21,07,24,28.20
2021,12,21,07,25,28.20
2021,12,21,07,26,28.20
2021,12,21,07,27,28.20
2021,12,21,07,28,28.20
2021,12,21,07,29,28.20
2021,12,21,07,30,28.20
2021,12,21,07,31,28.20
2021,12,21,07,32,28.20
2021,12,21,07,33,28.20
2021,12,21,07,34,28.20
2021,12,21,07,35,28.20
2021,12,21,07,36,28.10
2021,12,21,07,37,28.10
2021,12,21,07,38,28.10
2021,12,21,07,39,28.10
2021,12,21,07,40,28.10
2021,12,21,07,41,28.10
2021,12,21,07,42,28.10
2021,12,21,07,43,28.10
2021,12,21,07,44,28.00
2021,12,21,07,45,28.00
2021,12,21,07,46,28.00
2021,12,21,07,47,28.00
2021,12,21,07,48,27.90
2021,12,21,07,49,27.90
2021,12,21,07,50,27.90
2021,12,21,07,51,27.90
2021,12,21,07,52,27.90
2021,12,21,07,53,27.90
2021,12,21,07,54,27.90
2021,12,21,07,55,27.90
2021,12,21,07,56,27.90
2021,12,21,07,57,27.90
2021,12,21,07,58,27.90
2021,12,21,07,59,27.90
2021,12,21,08,00,27.90
2021,12,21,08,01,27.90
2021,12,21,08,02,27.90
2021,12,21,08,03,27.90
2021,12,21,08,04,27.90
2021,12,21,08,05,27.90
2021,12,21,08,06,27.90
2021,12,21,08,07,27.90
2021,12,21,08,08,27.90
2021,12,21,08,09,27.90
2021,12,21,08,10,27.90
2021,12,21,08,11,27.90
2021,12,21,08,12,27.90
2021,12,21,08,13,27.90
2021,12,21,08,14,27.90
2021,12,21,08,15,27.90
2021,12,21,08,16,28.00
2021,12,21,08,17,28.00
2021,12,21,08,18,28.00
2021,12,21,08,19,28.00
2021,12,21,08,20,28.00
2021,12,21,08,21,28.00
2021,12,21,08,22,28.00
2021,12,21,08,23,28.00
2021,12,21,08,24,28.00
2021,12,21,08,25,28.00
2021,12,21,08,26,28.00
2021,12,21,08,27,28.00
2021,12,21,08,28,28.00
2021,12,21,08,29,28.00
2021,12,21,08,30,28.00
2021,12,21,08,31,28.00
2021,12,21,08,32,28.00
2021,12,21,08,33,28.00
2021,12,21,08,34,28.00
2021,12,21,08,35,28.00
2021,12,21,08,36,28.00
2021,12,21,08,37,28.00
2021,12,21,08,38,28.00
2021,12,21,08,39,28.00
2021,12,21,08,40,28.00
2021,12,21,08,41,28.00
2021,12,21,08,42,27.90
2021,12,21,08,43,27.90
2021,12,21,08,44,27.90
2021,12,21,08,45,28.00
2021,12,21,08,46,28.00
2021,12,21,08,47,28.00
2021,12,21,08,48,28.00
2021,12,21,08,49,28.00
2021,12,21,08,50,28.00
2021,12,21,08,51,28.00
2021,12,21,08,52,28.00
2021,12,21,08,53,28.10
2021,12,21,08,54,28.10
2021,12,21,08,55,28.10
2021,12,21,08,56,28.10
2021,12,21,08,57,28.10
2021,12,21,08,58,28.10
2021,12,21,08,59,28.20
2021,12,21,09,00,28.20
2021,12,21,09,01,28.20
2021,12,21,09,02,28.30
2021,12,21,09,03,28.30
2021,12,21,09,04,28.30
2021,12,21,09,05,28.30
2021,12,21,09,06,28.30
2021,12,21,09,07,28.40
2021,12,21,09,08,28.40
2021,12,21,09,09,28.40
2021,12,21,09,10,28.40
2021,12,21,09,11,28.50
2021,12,21,09,12,28.50
2021,12,21,09,13,28.50
2021,12,21,09,14,28.60
2021,12,21,09,15,28.60
2021,12,21,09,16,28.60
2021,12,21,09,17,28.60
2021,12,21,09,18,28.70
2021,12,21,09,19,28.70
2021,12,21,09,20,28.70
2021,12,21,09,21,28.70
2021,12,21,09,22,28.70
2021,12,21,09,23,28.80
2021,12,21,09,24,28.80
2021,12,21,09,25,28.80
2021,12,21,09,26,28.90
2021,12,21,09,27,28.90
2021,12,21,09,28,28.90
2021,12,21,09,29,28.90
2021,12,21,09,30,28.90
2021,12,21,09,31,29.00
2021,12,21,09,32,29.00
2021,12,21,09,33,29.00
2021,12,21,09,34,29.10
2021,12,21,09,35,29.10
2021,12,21,09,36,29.10
2021,12,21,09,37,29.10
2021,12,21,09,38,29.10
2021,12,21,09,39,29.20
2021,12,21,09,40,29.20
2021,12,21,09,41,29.20
2021,12,21,09,42,29.20
2021,12,21,09,43,29.30
2021,12,21,09,44,29.30
2021,12,21,09,45,29.30
2021,12,21,09,46,29.30
2021,12,21,09,47,29.30
2021,12,21,09,48,29.30
2021,12,21,09,49,29.40
2021,12,21,09,50,29.40
2021,12,21,09,51,29.40
2021,12,21,09,52,29.40
2021,12,21,09,53,29.40
2021,12,21,09,54,29.40
2021,12,21,09,55,29.50
2021,12,21,09,56,29.50
2021,12,21,09,57,29.50
2021,12,21,09,58,29.50
2021,12,21,09,59,29.60
2021,12,21,10,00,29.60
2021,12,21,10,01,29.60
2021,12,21,10,02,29.60
2021,12,21,10,03,29.60
2021,12,21,10,04,29.60
2021,12,21,10,05,29.60
2021,12,21,10,06,29.70
2021,12,21,10,07,29.70
2021,12,21,10,08,29.70
2021,12,21,10,09,29.70
2021,12,21,10,10,29.70
2021,12,21,10,11,29.80
2021,12,21,10,12,18.60
2021,12,21,10,13,1.80
2021,12,21,10,14,1.80
2021,12,21,10,15,1.80
2021,12,21,10,16,1.80
2021,12,21,10,17,1.80
2021,12,21,10,18,1.80
2021,12,21,10,19,1.80
2021,12,21,10,20,1.80
2021,12,21,10,21,1.80
2021,12,21,10,22,1.80
2021,12,21,10,23,1.80
2021,12,21,10,24,1.90
2021,12,21,10,25,1.90
2021,12,21,10,26,1.90
2021,12,21,10,27,1.90
2021,12,21,10,28,1.90
2021,12,21,10,29,1.90
2021,12,21,10,30,1.90
2021,12,21,10,31,1.90
2021,12,21,10,32,1.90
2021,12,21,10,33,1.90
2021,12,21,10,34,1.90
2021,12,21,10,35,1.90
2021,12,21,10,36,1.90
2021,12,21,10,37,1.90
2021,12,21,10,38,1.90
2021,12,21,10,39,1.90
2021,12,21,10,40,1.90
2021,12,21,10,41,1.90
2021,12,21,10,42,1.90
2021,12,21,10,43,1.90
2021,12,21,10,44,1.90
2021,12,21,10,45,1.90
2021,12,21,10,46,1.90
2021,12,21,10,47,1.90
2021,12,21,10,48,1.90
2021,12,21,10,49,1.90
2021,12,21,10,50,1.90
2021,12,21,10,51,1.90
2021,12,21,10,52,1.90
2021,12,21,10,53,1.90
2021,12,21,10,54,1.90
2021,12,21,10,55,1.90
2021,12,21,10,56,2.00
2021,12,21,10,57,2.00
2021,12,21,10,58,2.00
2021,12,21,10,59,2.00
2021,12,21,11,00,2.10
2021,12,21,11,01,2.10
2021,12,21,11,02,2.10
2021,12,21,11,03,2.10
2021,12,21,11,04,2.10
2021,12,21,11,05,2.10
2021,12,21,11,06,2.10
2021,12,21,11,07,2.10
2021,12,21,11,08,2.10
2021,12,21,11,09,2.10
2021,12,21,11,10,2.10
2021,12,21,11,11,2.10
2021,12,21,11,12,2.10
2021,12,21,11,13,2.10
2021,12,21,11,14,2.10
2021,12,21,11,15,2.20
2021,12,21,11,16,2.20
2021,12,21,11,17,2.20
2021,12,21,11,18,2.30
2021,12,21,11,19,2.30
2021,12,21,11,20,2.30
2021,12,21,11,21,2.40
2021,12,21,11,22,2.40
2021,12,21,11,23,2.40
2021,12,21,11,24,2.40
2021,12,21,11,25,2.40
2021,12,21,11,26,2.50
2021,12,21,11,27,2.50
2021,12,21,11,28,2.50
2021,12,21,11,29,2.50
2021,12,21,11,30,2.60
2021,12,21,11,31,2.50
2021,12,21,11,32,2.60
2021,12,21,11,33,2.60
2021,12,21,11,34,2.60
2021,12,21,11,35,2.60
2021,12,21,11,36,2.60
2021,12,21,11,37,2.60
2021,12,21,11,38,2.60
2021,12,21,11,39,2.60
2021,12,21,11,40,2.60
2021,12,21,11,41,2.60
2021,12,21,11,42,2.60
2021,12,21,11,43,2.60
2021,12,21,11,44,2.60
2021,12,21,11,45,2.60
2021,12,21,11,46,2.60
2021,12,21,11,47,2.70
2021,12,21,11,48,2.70
2021,12,21,11,49,2.70
2021,12,21,11,50,2.70
2021,12,21,11,51,2.70
2021,12,21,11,52,2.70
2021,12,21,11,53,2.70
2021,12,21,11,54,2.70
2021,12,21,11,55,2.70
2021,12,21,11,56,2.70
2021,12,21,11,57,2.70
2021,12,21,11,58,2.70
2021,12,21,11,59,2.60
2021,12,21,12,00,2.60
2021,12,21,12,01,2.60
2021,12,21,12,02,2.60
2021,12,21,12,03,2.60
2021,12,21,12,04,2.60
2021,12,21,12,05,2.60
2021,12,21,12,06,2.60
2021,12,21,12,07,2.60
2021,12,21,12,08,2.70
2021,12,21,12,09,2.70
2021,12,21,12,10,2.70
2021,12,21,12,11,2.70
2021,12,21,12,12,2.70
2021,12,21,12,13,2.70
2021,12,21,12,14,2.70
2021,12,21,12,15,2.70
2021,12,21,12,16,2.70
2021,12,21,12,17,2.70
2021,12,21,12,18,2.70
2021,12,21,12,19,2.70
2021,12,21,12,20,2.70
2021,12,21,12,21,2.70
2021,12,21,12,22,2.70
2021,12,21,12,23,2.70
2021,12,21,12,24,2.70
2021,12,21,12,25,2.60
2021,12,21,12,26,2.60
2021,12,21,12,27,2.60
2021,12,21,12,28,2.60
2021,12,21,12,29,2.60
2021,12,21,12,30,2.60
2021,12,21,12,31,2.60
2021,12,21,12,32,2.60
2021,12,21,12,33,2.60
2021,12,21,12,34,2.60
2021,12,21,12,35,2.50
2021,12,21,12,36,2.50
2021,12,21,12,37,2.50
2021,12,21,12,38,2.50
2021,12,21,12,39,2.50
2021,12,21,12,40,2.50
2021,12,21,12,41,2.50
2021,12,21,12,42,2.50
2021,12,21,12,43,2.50
2021,12,21,12,44,2.50
2021,12,21,12,45,2.50
2021,12,21,12,46,2.50
2021,12,21,12,47,2.50
2021,12,21,12,48,2.50
2021,12,21,12,49,2.50
2021,12,21,12,50,2.40
2021,12,21,12,51,2.40
2021,12,21,12,52,2.40
2021,12,21,12,53,2.40
2021,12,21,12,54,2.40
2021,12,21,12,55,2.40
2021,12,21,12,56,2.40
2021,12,21,12,57,2.40
2021,12,21,12,58,2.40
2021,12,21,12,59,2.40
2021,12,21,13,00,2.40
2021,12,21,13,01,2.40
2021,12,21,13,02,2.40
2021,12,21,13,03,2.40
2021,12,21,13,04,2.40
2021,12,21,13,05,2.40
2021,12,21,13,06,2.40
2021,12,21,13,07,2.40
2021,12,21,13,08,2.40
2021,12,21,13,09,2.40
2021,12,21,13,10,2.40
2021,12,21,13,11,2.40
2021,12,21,13,12,2.50
2021,12,21,13,13,2.50
2021,12,21,13,14,2.50
2021,12,21,13,15,2.50
2021,12,21,13,16,2.60
2021,12,21,13,17,2.60
2021,12,21,13,18,2.60
2021,12,21,13,19,2.60
2021,12,21,13,20,11.60
2021,12,21,13,21,31.10
2021,12,21,13,22,31.10
2021,12,21,13,23,31.10
2021,12,21,13,24,31.20
2021,12,21,13,25,31.20
2021,12,21,13,26,31.10
2021,12,21,13,27,31.10
2021,12,21,13,28,31.00
2021,12,21,13,29,31.00
2021,12,21,13,30,31.00
2021,12,21,13,31,31.00
2021,12,21,13,32,31.00
2021,12,21,13,33,31.00
2021,12,21,13,34,31.00
2021,12,21,13,35,31.00
2021,12,21,13,36,31.00
2021,12,21,13,37,31.00
2021,12,21,13,38,31.00
2021,12,21,13,39,31.10
2021,12,21,13,40,31.10
2021,12,21,13,41,31.10
2021,12,21,13,42,31.10
2021,12,21,13,43,31.10
2021,12,21,13,44,31.20
2021,12,21,13,45,31.20
2021,12,21,13,46,31.20
2021,12,21,13,47,31.20
2021,12,21,13,48,31.20
2021,12,21,13,49,31.20
2021,12,21,13,50,31.20
2021,12,21,13,51,31.20
2021,12,21,13,52,31.20
2021,12,21,13,53,31.20
2021,12,21,13,54,31.20
2021,12,21,13,55,31.20
2021,12,21,13,56,31.20
2021,12,21,13,57,31.20
2021,12,21,13,58,31.20
2021,12,21,13,59,31.20
2021,12,21,14,00,31.10
2021,12,21,14,01,31.10
2021,12,21,14,02,31.10
2021,12,21,14,03,31.10
2021,12,21,14,04,31.10
2021,12,21,14,05,31.10
2021,12,21,14,06,31.10
2021,12,21,14,07,31.10
2021,12,21,14,08,31.10
2021,12,21,14,09,31.10
2021,12,21,14,10,31.10
2021,12,21,14,11,31.10
2021,12,21,14,12,31.10
2021,12,21,14,13,31.10
2021,12,21,14,14,31.10
2021,12,21,14,15,31.10
2021,12,21,14,16,31.10
2021,12,21,14,17,31.10
2021,12,21,14,18,31.10
2021,12,21,14,19,31.10
2021,12,21,14,20,31.10
2021,12,21,14,21,31.10
2021,12,21,14,22,31.10
2021,12,21,14,23,31.20
2021,12,21,14,24,31.20
2021,12,21,14,25,31.20
2021,12,21,14,26,31.20
2021,12,21,14,27,31.20
2021,12,21,14,28,31.20
2021,12,21,14,29,31.20
2021,12,21,14,30,31.20
2021,12,21,14,31,31.10
2021,12,21,14,32,31.10
2021,12,21,14,33,31.10
2021,12,21,14,34,31.10
2021,12,21,14,35,31.10
2021,12,21,14,36,31.10
2021,12,21,14,37,31.10
2021,12,21,14,38,31.10
2021,12,21,14,39,31.10
2021,12,21,14,40,31.10
2021,12,21,14,41,31.10
2021,12,21,14,42,31.10
2021,12,21,14,43,31.10
2021,12,21,14,44,31.20
2021,12,21,14,45,31.20
2021,12,21,14,46,31.20
2021,12,21,14,47,31.10
2021,12,21,14,48,31.10
2021,12,21,14,49,31.10
2021,12,21,14,50,31.10
2021,12,21,14,51,31.10
2021,12,21,14,52,31.10
2021,12,21,14,53,31.10
2021,12,21,14,54,31.10
2021,12,21,14,55,31.10
2021,12,21,14,56,31.10
2021,12,21,14,57,31.10
2021,12,21,14,58,31.10
2021,12,21,14,59,31.10
2021,12,21,15,00,31.10
2021,12,21,15,01,31.10
2021,12,21,15,02,31.10
2021,12,21,15,03,31.10
2021,12,21,15,04,31.10
2021,12,21,15,05,31.10
2021,12,21,15,06,31.10
2021,12,21,15,07,31.00
2021,12,21,15,08,31.00
2021,12,21,15,09,31.00
2021,12,21,15,10,31.00
2021,12,21,15,11,30.90
2021,12,21,15,12,30.90
2021,12,21,15,13,30.90
2021,12,21,15,14,30.90
2021,12,21,15,15,30.80
2021,12,21,15,16,30.80
2021,12,21,15,17,30.80
2021,12,21,15,18,30.80
2021,12,21,15,19,30.80
2021,12,21,15,20,30.80
2021,12,21,15,21,30.80
2021,12,21,15,22,30.70
2021,12,21,15,23,30.70
2021,12,21,15,24,30.70
2021,12,21,15,25,30.70
2021,12,21,15,26,30.60
2021,12,21,15,27,30.60
2021,12,21,15,28,30.60
2021,12,21,15,29,30.60
2021,12,21,15,30,30.60
2021,12,21,15,31,30.60
2021,12,21,15,32,30.60
2021,12,21,15,33,30.60
2021,12,21,15,34,30.60
2021,12,21,15,35,30.50
2021,12,21,15,36,30.50
2021,12,21,15,37,30.50
2021,12,21,15,38,30.50
2021,12,21,15,39,30.50
2021,12,21,15,40,30.50
2021,12,21,15,41,30.50
2021,12,21,15,42,30.60
2021,12,21,15,43,30.50
2021,12,21,15,44,30.60
2021,12,21,15,45,30.60
2021,12,21,15,46,30.60
2021,12,21,15,47,30.60
2021,12,21,15,48,30.60
2021,12,21,15,49,30.60
2021,12,21,15,50,30.60
2021,12,21,15,51,30.50
2021,12,21,15,52,30.50
2021,12,21,15,53,30.50
2021,12,21,15,54,30.50
2021,12,21,15,55,30.50
2021,12,21,15,56,30.50
2021,12,21,15,57,30.40
2021,12,21,15,58,30.40
2021,12,21,15,59,30.50
2021,12,21,16,00,30.50
2021,12,21,16,01,30.50
2021,12,21,16,02,30.50
2021,12,21,16,03,30.50
2021,12,21,16,04,30.50
2021,12,21,16,05,30.50
2021,12,21,16,06,30.50
2021,12,21,16,07,30.50
2021,12,21,16,08,30.50
2021,12,21,16,09,30.50
2021,12,21,16,10,30.50
2021,12,21,16,11,30.40
2021,12,21,16,12,30.40
2021,12,21,16,13,30.40
2021,12,21,16,14,30.40
2021,12,21,16,15,30.40
2021,12,21,16,16,30.40
2021,12,21,16,17,30.40
2021,12,21,16,18,30.40
2021,12,21,16,19,30.40
2021,12,21,16,20,30.40
2021,12,21,16,21,30.40
2021,12,21,16,22,30.30
2021,12,21,16,23,30.30
2021,12,21,16,24,30.30
2021,12,21,16,25,30.30
2021,12,21,16,26,30.30
2021,12,21,16,27,30.30
2021,12,21,16,28,30.30
2021,12,21,16,29,30.30
2021,12,21,16,30,30.30
2021,12,21,16,31,30.30
2021,12,21,16,32,30.30
2021,12,21,16,33,30.30
2021,12,21,16,34,30.30
2021,12,21,16,35,30.30
2021,12,21,16,36,30.30
2021,12,21,16,37,30.30
2021,12,21,16,38,30.30
2021,12,21,16,39,30.30
2021,12,21,16,40,30.30
2021,12,21,16,41,30.30
2021,12,21,16,42,30.30
2021,12,21,16,43,30.30
2021,12,21,16,44,30.30
2021,12,21,16,45,30.30
2021,12,21,16,46,30.30
2021,12,21,16,47,30.30
2021,12,21,16,48,30.30
2021,12,21,16,49,30.30
2021,12,21,16,50,30.30
2021,12,21,16,51,30.30
2021,12,21,16,52,30.30
2021,12,21,16,53,30.30
2021,12,21,16,54,30.30
2021,12,21,16,55,30.30
2021,12,21,16,56,30.30
2021,12,21,16,57,30.30
2021,12,21,16,58,30.30
2021,12,21,16,59,30.30
2021,12,21,17,00,30.20
2021,12,21,17,01,30.20
2021,12,21,17,02,30.20
2021,12,21,17,03,30.20
2021,12,21,17,04,30.20
2021,12,21,17,05,30.20
2021,12,21,17,06,30.20
2021,12,21,17,07,30.20
2021,12,21,17,08,30.20
2021,12,21,17,09,30.10
2021,12,21,17,10,30.10
2021,12,21,17,11,30.10
2021,12,21,17,12,30.10
2021,12,21,17,13,30.10
2021,12,21,17,14,30.10
2021,12,21,17,15,30.10
2021,12,21,17,16,30.10
2021,12,21,17,17,30.10
2021,12,21,17,18,30.10
2021,12,21,17,19,30.10
2021,12,21,17,20,30.10
2021,12,21,17,21,30.10
2021,12,21,17,22,30.10
2021,12,21,17,23,30.10
2021,12,21,17,24,30.10
2021,12,21,17,25,30.10
2021,12,21,17,26,30.10
2021,12,21,17,27,30.10